| time (UTC) | temp F | wind direction | speed knots | gust knots | rain 1hr in | rain 24hr in | rain mn in | humidity % | barometer mb |
| 20260507235013 | 39 | 0 | 0.0 | 0.9 | 0.00 | 0.00 | 0.00 | 88 | 1017.4 |
| 20260507234533 | 39 | 0 | 0.0 | 0.9 | 0.00 | 0.00 | 0.00 | 88 | 1017.5 |
| 20260507234052 | 39 | 0 | 0.0 | 0.9 | 0.00 | 0.00 | 0.00 | 88 | 1017.3 |
| 20260507233513 | 39 | 0 | 0.0 | 0.9 | 0.00 | 0.00 | 0.00 | 88 | 1017.4 |
| 20260507233029 | 40 | 0 | 0.0 | 0.0 | 0.00 | 0.00 | 0.00 | 88 | 1017.4 |
| 20260507232513 | 40 | 0 | 0.0 | 0.0 | 0.00 | 0.00 | 0.00 | 88 | 1017.5 |
| 20260507232011 | 40 | 0 | 0.0 | 0.9 | 0.00 | 0.00 | 0.00 | 88 | 1017.6 |
| 20260507231535 | 40 | 0 | 0.0 | 1.7 | 0.00 | 0.00 | 0.00 | 88 | 1017.7 |
| 20260507231010 | 41 | 360 | 0.0 | 1.7 | 0.00 | 0.00 | 0.00 | 88 | 1017.6 |
| 20260507230515 | 41 | 360 | 0.0 | 0.9 | 0.00 | 0.00 | 0.00 | 88 | 1017.6 |
| 20260507230032 | 41 | 0 | 0.0 | 1.7 | 0.00 | 0.00 | 0.00 | 88 | 1017.6 |
| 20260507225515 | 41 | 0 | 0.0 | 2.6 | 0.00 | 0.00 | 0.00 | 88 | 1017.7 |
| 20260507225013 | 41 | 360 | 0.9 | 2.6 | 0.00 | 0.00 | 0.00 | 87 | 1017.7 |
| 20260507224540 | 41 | 360 | 0.9 | 1.7 | 0.00 | 0.00 | 0.00 | 87 | 1017.8 |
| 20260507224013 | 41 | 360 | 0.0 | 0.9 | 0.00 | 0.00 | 0.00 | 87 | 1017.7 |
| 20260507223517 | 41 | 0 | 0.0 | 0.9 | 0.00 | 0.00 | 0.00 | 87 | 1017.7 |
| 20260507223032 | 41 | 0 | 0.0 | 1.7 | 0.00 | 0.00 | 0.00 | 87 | 1017.7 |
| 20260507222512 | 42 | 0 | 0.0 | 1.7 | 0.00 | 0.00 | 0.00 | 87 | 1017.6 |
| 20260507222013 | 42 | 360 | 0.9 | 1.7 | 0.00 | 0.00 | 0.00 | 87 | 1017.6 |
| 20260507221528 | 42 | 0 | 0.0 | 1.7 | 0.00 | 0.00 | 0.00 | 86 | 1017.8 |
| 20260507221010 | 42 | 0 | 0.0 | 1.7 | 0.00 | 0.00 | 0.00 | 86 | 1017.7 |
| 20260507220510 | 42 | 360 | 0.0 | 1.7 | 0.00 | 0.00 | 0.00 | 86 | 1017.7 |
| 20260507220040 | 42 | 360 | 0.0 | 0.9 | 0.00 | 0.00 | 0.00 | 86 | 1017.8 |
| 20260507215510 | 42 | 0 | 0.0 | 0.0 | 0.00 | 0.00 | 0.00 | 85 | 1017.8 |
| 20260507215014 | 43 | 0 | 0.0 | 0.0 | 0.00 | 0.00 | 0.00 | 85 | 1017.9 |
| 20260507214536 | 43 | 0 | 0.0 | 0.0 | 0.00 | 0.00 | 0.00 | 85 | 1017.7 |
| 20260507214011 | 44 | 0 | 0.0 | 0.0 | 0.00 | 0.00 | 0.00 | 85 | 1017.7 |
| 20260507213513 | 44 | 0 | 0.0 | 0.0 | 0.00 | 0.00 | 0.00 | 85 | 1017.7 |
| 20260507213033 | 44 | 0 | 0.0 | 0.0 | 0.00 | 0.00 | 0.00 | 85 | 1017.7 |
| 20260507212513 | 44 | 0 | 0.0 | 0.0 | 0.00 | 0.00 | 0.00 | 85 | 1017.8 |
| 20260507212011 | 44 | 0 | 0.0 | 0.9 | 0.00 | 0.00 | 0.00 | 84 | 1017.7 |
| 20260507211534 | 44 | 0 | 0.0 | 0.9 | 0.00 | 0.00 | 0.00 | 84 | 1017.7 |
| 20260507211012 | 45 | 0 | 0.0 | 0.9 | 0.00 | 0.00 | 0.00 | 84 | 1017.7 |
| 20260507210511 | 45 | 0 | 0.0 | 0.0 | 0.00 | 0.00 | 0.00 | 84 | 1017.6 |
| 20260507210028 | 45 | 0 | 0.0 | 0.0 | 0.00 | 0.00 | 0.00 | 84 | 1017.5 |
| 20260507205511 | 46 | 0 | 0.0 | 0.0 | 0.00 | 0.00 | 0.00 | 83 | 1017.6 |
| 20260507205015 | 46 | 0 | 0.0 | 0.0 | 0.00 | 0.00 | 0.00 | 83 | 1017.6 |
| 20260507204530 | 47 | 0 | 0.0 | 0.9 | 0.00 | 0.00 | 0.00 | 83 | 1017.5 |
| 20260507204015 | 47 | 0 | 0.0 | 0.9 | 0.00 | 0.00 | 0.00 | 83 | 1017.6 |
| 20260507203511 | 47 | 0 | 0.0 | 0.9 | 0.00 | 0.00 | 0.00 | 83 | 1017.6 |
| 20260507203034 | 48 | 0 | 0.0 | 3.5 | 0.00 | 0.00 | 0.00 | 83 | 1017.6 |
| 20260507202514 | 48 | 360 | 0.9 | 3.5 | 0.00 | 0.00 | 0.00 | 83 | 1017.5 |
| 20260507202013 | 48 | 0 | 0.0 | 1.7 | 0.00 | 0.00 | 0.00 | 82 | 1017.5 |
| 20260507201530 | 49 | 360 | 0.0 | 1.7 | 0.00 | 0.00 | 0.00 | 82 | 1017.4 |
| 20260507201013 | 49 | 360 | 0.9 | 2.6 | 0.00 | 0.00 | 0.00 | 82 | 1017.3 |
| 20260507200510 | 49 | 0 | 0.0 | 5.2 | 0.00 | 0.00 | 0.00 | 82 | 1017.2 |
| 20260507200030 | 49 | 360 | 1.7 | 5.2 | 0.00 | 0.00 | 0.00 | 81 | 1017.1 |
| 20260507195513 | 49 | 360 | 1.7 | 5.2 | 0.00 | 0.00 | 0.00 | 81 | 1017.0 |
| 20260507195013 | 50 | 360 | 0.9 | 4.3 | 0.00 | 0.00 | 0.00 | 80 | 1017.0 |
| 20260507194532 | 50 | 0 | 0.9 | 4.3 | 0.00 | 0.00 | 0.00 | 80 | 1016.8 |
| 20260507194010 | 50 | 360 | 0.9 | 4.3 | 0.00 | 0.00 | 0.00 | 80 | 1016.7 |
| 20260507193510 | 50 | 360 | 1.7 | 4.3 | 0.00 | 0.00 | 0.00 | 79 | 1016.8 |
| 20260507193032 | 51 | 360 | 1.7 | 7.0 | 0.00 | 0.00 | 0.00 | 79 | 1016.8 |
| 20260507192513 | 51 | 360 | 1.7 | 7.0 | 0.00 | 0.00 | 0.00 | 79 | 1016.7 |
| 20260507192013 | 51 | 360 | 1.7 | 4.3 | 0.00 | 0.00 | 0.00 | 78 | 1016.7 |
| 20260507191533 | 51 | 360 | 1.7 | 7.0 | 0.00 | 0.00 | 0.00 | 78 | 1016.7 |
| 20260507191013 | 51 | 360 | 1.7 | 7.0 | 0.00 | 0.00 | 0.00 | 78 | 1016.6 |
| 20260507190510 | 52 | 360 | 2.6 | 7.0 | 0.00 | 0.00 | 0.00 | 77 | 1016.7 |
| 20260507190029 | 52 | 360 | 1.7 | 7.0 | 0.00 | 0.00 | 0.00 | 76 | 1016.7 |
| 20260507185516 | 52 | 360 | 2.6 | 7.8 | 0.00 | 0.00 | 0.00 | 75 | 1016.7 |
| 20260507185012 | 53 | 360 | 2.6 | 7.8 | 0.00 | 0.00 | 0.00 | 74 | 1016.7 |
| 20260507184530 | 53 | 360 | 3.5 | 9.6 | 0.00 | 0.00 | 0.00 | 74 | 1016.6 |
| 20260507184017 | 53 | 360 | 3.5 | 9.6 | 0.00 | 0.00 | 0.00 | 73 | 1016.6 |
| 20260507183512 | 54 | 360 | 2.6 | 8.7 | 0.00 | 0.00 | 0.00 | 72 | 1016.7 |
| 20260507183030 | 54 | 360 | 3.5 | 10.4 | 0.00 | 0.00 | 0.00 | 72 | 1016.5 |
| 20260507182513 | 54 | 360 | 2.6 | 10.4 | 0.00 | 0.00 | 0.00 | 71 | 1016.5 |
| 20260507182014 | 55 | 360 | 5.2 | 8.7 | 0.00 | 0.00 | 0.00 | 70 | 1016.4 |
| 20260507181529 | 55 | 360 | 4.3 | 9.6 | 0.00 | 0.00 | 0.00 | 71 | 1016.3 |
| 20260507181012 | 55 | 360 | 4.3 | 9.6 | 0.00 | 0.00 | 0.00 | 71 | 1016.4 |
| 20260507180516 | 55 | 360 | 4.3 | 10.4 | 0.00 | 0.00 | 0.00 | 71 | 1016.4 |
| 20260507180030 | 55 | 150 | 4.3 | 11.3 | 0.00 | 0.00 | 0.00 | 71 | 1016.2 |
| 20260507175513 | 55 | 178 | 5.2 | 12.2 | 0.00 | 0.00 | 0.00 | 70 | 1016.4 |
| 20260507175016 | 56 | 190 | 7.0 | 12.2 | 0.00 | 0.00 | 0.00 | 70 | 1016.3 |
| 20260507174540 | 56 | 131 | 3.5 | 11.3 | 0.00 | 0.00 | 0.00 | 69 | 1016.3 |
| 20260507174011 | 56 | 142 | 7.0 | 11.3 | 0.00 | 0.00 | 0.00 | 70 | 1016.3 |
| 20260507173514 | 56 | 360 | 5.2 | 11.3 | 0.00 | 0.00 | 0.00 | 70 | 1016.3 |
| 20260507173034 | 55 | 360 | 3.5 | 9.6 | 0.00 | 0.00 | 0.00 | 71 | 1016.2 |
| 20260507172512 | 55 | 360 | 5.2 | 9.6 | 0.00 | 0.00 | 0.00 | 71 | 1016.2 |
| 20260507172012 | 55 | 360 | 4.3 | 9.6 | 0.00 | 0.00 | 0.00 | 71 | 1016.3 |
| 20260507171535 | 55 | 360 | 4.3 | 8.7 | 0.00 | 0.00 | 0.00 | 71 | 1016.4 |
| 20260507171012 | 55 | 360 | 3.5 | 8.7 | 0.00 | 0.00 | 0.00 | 71 | 1016.3 |
| 20260507170511 | 55 | 360 | 4.3 | 10.4 | 0.00 | 0.00 | 0.00 | 70 | 1016.4 |
| 20260507170040 | 55 | 360 | 3.5 | 10.4 | 0.00 | 0.00 | 0.00 | 70 | 1016.4 |
| 20260507165514 | 55 | 360 | 3.5 | 8.7 | 0.00 | 0.00 | 0.00 | 69 | 1016.3 |
| 20260507165012 | 55 | 360 | 3.5 | 8.7 | 0.00 | 0.00 | 0.00 | 68 | 1016.4 |
| 20260507164533 | 55 | 360 | 2.6 | 8.7 | 0.00 | 0.00 | 0.00 | 69 | 1016.4 |
| 20260507164015 | 55 | 360 | 2.6 | 8.7 | 0.00 | 0.00 | 0.00 | 69 | 1016.4 |
| 20260507163511 | 55 | 360 | 4.3 | 8.7 | 0.00 | 0.00 | 0.00 | 69 | 1016.4 |
| 20260507163031 | 55 | 360 | 4.3 | 10.4 | 0.00 | 0.00 | 0.00 | 69 | 1016.5 |
| 20260507162513 | 55 | 360 | 3.5 | 10.4 | 0.00 | 0.00 | 0.00 | 69 | 1016.4 |
| 20260507162012 | 55 | 360 | 3.5 | 7.0 | 0.00 | 0.00 | 0.00 | 69 | 1016.4 |
| 20260507161530 | 55 | 360 | 1.7 | 7.8 | 0.00 | 0.00 | 0.00 | 70 | 1016.3 |
| 20260507161013 | 55 | 360 | 1.7 | 8.7 | 0.00 | 0.00 | 0.00 | 70 | 1016.5 |
| 20260507160511 | 55 | 360 | 3.5 | 8.7 | 0.00 | 0.00 | 0.00 | 70 | 1016.5 |
| 20260507160034 | 55 | 360 | 3.5 | 8.7 | 0.00 | 0.00 | 0.00 | 69 | 1016.4 |
| 20260507155512 | 55 | 360 | 4.3 | 8.7 | 0.00 | 0.00 | 0.00 | 68 | 1016.5 |
| 20260507155014 | 55 | 360 | 3.5 | 8.7 | 0.00 | 0.00 | 0.00 | 67 | 1016.5 |
| 20260507154531 | 56 | 360 | 2.6 | 9.6 | 0.00 | 0.00 | 0.00 | 67 | 1016.4 |
| 20260507154014 | 56 | 360 | 3.5 | 9.6 | 0.00 | 0.00 | 0.00 | 66 | 1016.4 |
| 20260507153512 | 56 | 162 | 3.5 | 9.6 | 0.00 | 0.00 | 0.00 | 66 | 1016.5 |
| 20260507153031 | 56 | 360 | 3.5 | 7.8 | 0.00 | 0.00 | 0.00 | 65 | 1016.4 |
| 20260507152513 | 56 | 360 | 3.5 | 7.8 | 0.00 | 0.00 | 0.00 | 64 | 1016.4 |
| 20260507152012 | 56 | 360 | 3.5 | 7.8 | 0.00 | 0.00 | 0.00 | 64 | 1016.4 |
| 20260507151530 | 56 | 360 | 1.7 | 11.3 | 0.00 | 0.00 | 0.00 | 64 | 1016.4 |
| 20260507151012 | 56 | 360 | 4.3 | 11.3 | 0.00 | 0.00 | 0.00 | 64 | 1016.3 |
| 20260507150513 | 56 | 360 | 4.3 | 9.6 | 0.00 | 0.00 | 0.00 | 64 | 1016.3 |
| 20260507150033 | 57 | 360 | 2.6 | 10.4 | 0.00 | 0.00 | 0.00 | 64 | 1016.3 |
| 20260507145512 | 57 | 360 | 2.6 | 10.4 | 0.00 | 0.00 | 0.00 | 64 | 1016.3 |
| 20260507145013 | 57 | 360 | 4.3 | 13.0 | 0.00 | 0.00 | 0.00 | 64 | 1016.3 |
| 20260507144532 | 57 | 360 | 4.3 | 13.0 | 0.00 | 0.00 | 0.00 | 64 | 1016.3 |
| 20260507144010 | 57 | 182 | 5.2 | 10.4 | 0.00 | 0.00 | 0.00 | 62 | 1016.2 |
| 20260507143511 | 58 | 173 | 4.3 | 8.7 | 0.00 | 0.00 | 0.00 | 61 | 1016.1 |
| 20260507143034 | 58 | 171 | 4.3 | 7.8 | 0.00 | 0.00 | 0.00 | 61 | 1016.4 |
| 20260507142510 | 58 | 149 | 4.3 | 7.8 | 0.00 | 0.00 | 0.00 | 59 | 1016.5 |
| 20260507142009 | 59 | 153 | 3.5 | 8.7 | 0.00 | 0.00 | 0.00 | 60 | 1016.4 |
| 20260507141530 | 59 | 161 | 3.5 | 8.7 | 0.00 | 0.00 | 0.00 | 61 | 1016.5 |
| 20260507141011 | 58 | 150 | 2.6 | 8.7 | 0.00 | 0.00 | 0.00 | 61 | 1016.6 |
| 20260507140513 | 58 | 115 | 3.5 | 8.7 | 0.00 | 0.00 | 0.00 | 62 | 1016.7 |
| 20260507140032 | 57 | 165 | 3.5 | 9.6 | 0.00 | 0.00 | 0.00 | 64 | 1016.6 |
| 20260507135517 | 57 | 170 | 5.2 | 9.6 | 0.00 | 0.00 | 0.00 | 63 | 1016.7 |
| 20260507135017 | 58 | 196 | 3.5 | 9.6 | 0.00 | 0.00 | 0.00 | 65 | 1016.6 |
| 20260507134531 | 56 | 136 | 4.3 | 11.3 | 0.00 | 0.00 | 0.00 | 64 | 1016.6 |
| 20260507134013 | 57 | 173 | 5.2 | 11.3 | 0.00 | 0.00 | 0.00 | 62 | 1016.8 |
| 20260507133512 | 57 | 144 | 4.3 | 8.7 | 0.00 | 0.00 | 0.00 | 64 | 1016.6 |
| 20260507133032 | 57 | 156 | 3.5 | 9.6 | 0.00 | 0.00 | 0.00 | 66 | 1016.7 |
| 20260507132515 | 57 | 190 | 4.3 | 10.4 | 0.00 | 0.00 | 0.00 | 66 | 1016.7 |
| 20260507132015 | 56 | 157 | 5.2 | 10.4 | 0.00 | 0.00 | 0.00 | 66 | 1016.7 |
| 20260507131548 | 57 | 183 | 5.2 | 10.4 | 0.00 | 0.00 | 0.00 | 66 | 1016.7 |
| 20260507131011 | 56 | 157 | 4.3 | 12.2 | 0.00 | 0.00 | 0.00 | 67 | 1016.8 |
| 20260507130514 | 57 | 165 | 5.2 | 13.0 | 0.00 | 0.00 | 0.00 | 67 | 1016.8 |
| 20260507130032 | 56 | 114 | 6.1 | 13.0 | 0.00 | 0.00 | 0.00 | 66 | 1016.8 |
| 20260507125512 | 57 | 163 | 4.3 | 9.6 | 0.00 | 0.00 | 0.00 | 66 | 1016.7 |
| 20260507125011 | 56 | 360 | 4.3 | 9.6 | 0.00 | 0.00 | 0.00 | 65 | 1016.7 |
| 20260507124534 | 57 | 171 | 4.3 | 10.4 | 0.00 | 0.00 | 0.00 | 65 | 1016.8 |
| 20260507124016 | 57 | 360 | 3.5 | 10.4 | 0.00 | 0.00 | 0.00 | 65 | 1016.7 |
| 20260507123513 | 57 | 162 | 3.5 | 7.8 | 0.00 | 0.00 | 0.00 | 64 | 1016.8 |
| 20260507123031 | 57 | 142 | 3.5 | 8.7 | 0.00 | 0.00 | 0.00 | 64 | 1016.8 |
| 20260507122509 | 57 | 150 | 4.3 | 8.7 | 0.00 | 0.00 | 0.00 | 64 | 1016.6 |
| 20260507122014 | 57 | 165 | 3.5 | 7.8 | 0.00 | 0.00 | 0.00 | 64 | 1016.7 |
| 20260507121528 | 57 | 130 | 2.6 | 7.8 | 0.00 | 0.00 | 0.00 | 64 | 1016.7 |
| 20260507121012 | 57 | 129 | 1.7 | 7.8 | 0.00 | 0.00 | 0.00 | 65 | 1016.8 |
| 20260507120512 | 57 | 163 | 4.3 | 7.8 | 0.00 | 0.00 | 0.00 | 64 | 1016.8 |
| 20260507120038 | 57 | 360 | 2.6 | 7.0 | 0.00 | 0.00 | 0.00 | 64 | 1016.8 |
| 20260507115513 | 57 | 360 | 2.6 | 10.4 | 0.00 | 0.00 | 0.00 | 64 | 1016.8 |
| 20260507115017 | 56 | 360 | 3.5 | 10.4 | 0.00 | 0.00 | 0.00 | 65 | 1017.0 |
| 20260507114532 | 56 | 360 | 1.7 | 7.8 | 0.00 | 0.00 | 0.00 | 65 | 1016.8 |
| 20260507114012 | 56 | 109 | 2.6 | 7.8 | 0.00 | 0.00 | 0.00 | 65 | 1016.9 |
| 20260507113513 | 56 | 360 | 3.5 | 7.8 | 0.00 | 0.00 | 0.00 | 65 | 1016.8 |
| 20260507113029 | 56 | 360 | 3.5 | 7.8 | 0.00 | 0.00 | 0.00 | 65 | 1017.0 |
| 20260507112513 | 56 | 360 | 1.7 | 7.8 | 0.00 | 0.00 | 0.00 | 65 | 1017.0 |
| 20260507112014 | 56 | 360 | 3.5 | 7.8 | 0.00 | 0.00 | 0.00 | 66 | 1016.9 |
| 20260507111530 | 55 | 360 | 2.6 | 9.6 | 0.00 | 0.00 | 0.00 | 65 | 1017.0 |
| 20260507111010 | 55 | 360 | 2.6 | 9.6 | 0.00 | 0.00 | 0.00 | 67 | 1017.0 |
| 20260507110512 | 55 | 360 | 2.6 | 7.0 | 0.00 | 0.00 | 0.00 | 67 | 1017.0 |
| 20260507110028 | 55 | 360 | 1.7 | 7.0 | 0.00 | 0.00 | 0.00 | 67 | 1017.1 |
| 20260507105513 | 55 | 360 | 2.6 | 5.2 | 0.00 | 0.00 | 0.00 | 67 | 1017.0 |
| 20260507105012 | 55 | 360 | 0.9 | 4.3 | 0.00 | 0.00 | 0.00 | 67 | 1017.0 |
| 20260507104528 | 55 | 360 | 0.9 | 4.3 | 0.00 | 0.00 | 0.00 | 67 | 1017.0 |
| 20260507104015 | 55 | 360 | 2.6 | 4.3 | 0.00 | 0.00 | 0.00 | 68 | 1017.0 |
| 20260507103515 | 55 | 137 | 1.7 | 3.5 | 0.00 | 0.00 | 0.00 | 67 | 1017.0 |
| 20260507103032 | 55 | 133 | 0.0 | 4.3 | 0.00 | 0.00 | 0.00 | 67 | 1017.0 |
| 20260507102515 | 55 | 133 | 0.9 | 4.3 | 0.00 | 0.00 | 0.00 | 67 | 1017.1 |
| 20260507102010 | 55 | 132 | 0.9 | 4.3 | 0.00 | 0.00 | 0.00 | 66 | 1017.1 |
| 20260507101532 | 55 | 137 | 0.9 | 3.5 | 0.00 | 0.00 | 0.00 | 67 | 1017.1 |
| 20260507101009 | 55 | 137 | 0.9 | 3.5 | 0.00 | 0.00 | 0.00 | 68 | 1017.2 |
| 20260507100510 | 55 | 144 | 0.0 | 3.5 | 0.00 | 0.00 | 0.00 | 68 | 1017.0 |
| 20260507100035 | 55 | 144 | 0.9 | 3.5 | 0.00 | 0.00 | 0.00 | 67 | 1017.1 |
| 20260507095515 | 55 | 148 | 0.0 | 4.3 | 0.00 | 0.00 | 0.00 | 68 | 1017.1 |
| 20260507095011 | 55 | 148 | 0.9 | 4.3 | 0.00 | 0.00 | 0.00 | 68 | 1017.1 |
| 20260507094530 | 54 | 149 | 0.9 | 3.5 | 0.00 | 0.00 | 0.00 | 69 | 1017.2 |
| 20260507094012 | 54 | 360 | 0.0 | 6.1 | 0.00 | 0.00 | 0.00 | 68 | 1017.1 |
| 20260507093511 | 54 | 360 | 2.6 | 6.1 | 0.00 | 0.00 | 0.00 | 68 | 1017.1 |
| 20260507093032 | 55 | 146 | 2.6 | 4.3 | 0.00 | 0.00 | 0.00 | 68 | 1017.1 |
| 20260507092509 | 54 | 0 | 0.0 | 7.0 | 0.00 | 0.00 | 0.00 | 69 | 1017.1 |
| 20260507092012 | 55 | 139 | 2.6 | 7.0 | 0.00 | 0.00 | 0.00 | 68 | 1017.2 |
| 20260507091530 | 55 | 162 | 2.6 | 5.2 | 0.00 | 0.00 | 0.00 | 69 | 1017.1 |
| 20260507091014 | 55 | 163 | 1.7 | 4.3 | 0.00 | 0.00 | 0.00 | 69 | 1017.1 |
| 20260507090517 | 54 | 164 | 0.0 | 5.2 | 0.00 | 0.00 | 0.00 | 71 | 1017.1 |
| 20260507090036 | 54 | 164 | 0.0 | 5.2 | 0.00 | 0.00 | 0.00 | 71 | 1017.2 |
| 20260507085511 | 54 | 164 | 0.9 | 6.1 | 0.00 | 0.00 | 0.00 | 73 | 1017.0 |
| 20260507085012 | 54 | 166 | 0.9 | 7.0 | 0.00 | 0.00 | 0.00 | 72 | 1017.0 |
| 20260507084531 | 54 | 170 | 2.6 | 7.0 | 0.00 | 0.00 | 0.00 | 74 | 1017.0 |
| 20260507084010 | 53 | 0 | 0.0 | 5.2 | 0.00 | 0.00 | 0.00 | 74 | 1017.1 |
| 20260507083513 | 53 | 173 | 0.9 | 8.7 | 0.00 | 0.00 | 0.00 | 74 | 1017.0 |
| 20260507083028 | 53 | 175 | 3.5 | 8.7 | 0.00 | 0.00 | 0.00 | 74 | 1017.1 |
| 20260507082512 | 53 | 163 | 0.9 | 3.5 | 0.00 | 0.00 | 0.00 | 75 | 1017.1 |
| 20260507082012 | 53 | 360 | 0.9 | 5.2 | 0.00 | 0.00 | 0.00 | 75 | 1017.0 |
| 20260507081541 | 53 | 360 | 0.9 | 5.2 | 0.00 | 0.00 | 0.00 | 76 | 1017.0 |
| 20260507081012 | 52 | 360 | 1.7 | 7.0 | 0.00 | 0.00 | 0.00 | 76 | 1017.0 |
| 20260507080513 | 52 | 360 | 2.6 | 7.0 | 0.00 | 0.00 | 0.00 | 76 | 1016.9 |
| 20260507080030 | 52 | 360 | 1.7 | 5.2 | 0.00 | 0.00 | 0.00 | 77 | 1017.0 |
| 20260507075516 | 51 | 360 | 1.7 | 7.0 | 0.00 | 0.00 | 0.00 | 78 | 1016.9 |
| 20260507075012 | 51 | 360 | 2.6 | 7.0 | 0.00 | 0.00 | 0.00 | 78 | 1017.0 |
| 20260507074550 | 51 | 360 | 2.6 | 4.3 | 0.00 | 0.00 | 0.00 | 78 | 1016.9 |
| 20260507074010 | 51 | 360 | 1.7 | 7.0 | 0.00 | 0.00 | 0.00 | 78 | 1017.0 |
| 20260507073511 | 51 | 360 | 1.7 | 7.0 | 0.00 | 0.00 | 0.00 | 79 | 1016.9 |
| 20260507073028 | 50 | 360 | 1.7 | 5.2 | 0.00 | 0.00 | 0.00 | 80 | 1016.8 |
| 20260507072510 | 50 | 360 | 1.7 | 5.2 | 0.00 | 0.00 | 0.00 | 81 | 1016.7 |
| 20260507072012 | 50 | 360 | 1.7 | 5.2 | 0.00 | 0.00 | 0.00 | 81 | 1016.7 |
| 20260507071529 | 49 | 360 | 1.7 | 5.2 | 0.00 | 0.00 | 0.00 | 81 | 1016.8 |
| 20260507071012 | 49 | 360 | 1.7 | 5.2 | 0.00 | 0.00 | 0.00 | 82 | 1016.6 |
| 20260507070512 | 49 | 360 | 2.6 | 5.2 | 0.00 | 0.00 | 0.00 | 82 | 1016.6 |
| 20260507070029 | 49 | 360 | 1.7 | 5.2 | 0.00 | 0.00 | 0.00 | 82 | 1016.7 |
| 20260507065512 | 49 | 360 | 2.6 | 5.2 | 0.00 | 0.00 | 0.00 | 83 | 1016.7 |
| 20260507065010 | 49 | 360 | 1.7 | 5.2 | 0.00 | 0.00 | 0.00 | 84 | 1016.7 |
| 20260507064532 | 48 | 360 | 2.6 | 5.2 | 0.00 | 0.00 | 0.00 | 84 | 1016.7 |
| 20260507064011 | 48 | 360 | 1.7 | 5.2 | 0.00 | 0.00 | 0.00 | 85 | 1016.7 |
| 20260507063511 | 48 | 360 | 2.6 | 5.2 | 0.00 | 0.00 | 0.00 | 86 | 1016.5 |
| 20260507063030 | 48 | 360 | 1.7 | 5.2 | 0.00 | 0.00 | 0.00 | 88 | 1016.6 |
| 20260507062511 | 47 | 360 | 1.7 | 5.2 | 0.00 | 0.00 | 0.00 | 89 | 1016.6 |
| 20260507062010 | 47 | 360 | 1.7 | 5.2 | 0.00 | 0.00 | 0.00 | 90 | 1016.6 |
| 20260507061532 | 46 | 360 | 1.7 | 5.2 | 0.00 | 0.00 | 0.00 | 91 | 1016.7 |
| 20260507061009 | 46 | 360 | 1.7 | 5.2 | 0.00 | 0.00 | 0.00 | 91 | 1016.6 |
| 20260507060512 | 46 | 360 | 0.9 | 5.2 | 0.00 | 0.00 | 0.00 | 91 | 1016.5 |
| 20260507060030 | 45 | 360 | 1.7 | 5.2 | 0.00 | 0.00 | 0.00 | 91 | 1016.5 |
| 20260507055512 | 44 | 360 | 0.9 | 2.6 | 0.00 | 0.00 | 0.00 | 91 | 1016.5 |
| 20260507055014 | 44 | 0 | 0.0 | 0.9 | 0.00 | 0.00 | 0.00 | 91 | 1016.5 |
| 20260507054530 | 43 | 0 | 0.0 | 0.9 | 0.00 | 0.00 | 0.00 | 91 | 1016.5 |
| 20260507054010 | 43 | 0 | 0.0 | 0.9 | 0.00 | 0.00 | 0.00 | 91 | 1016.5 |
| 20260507053513 | 43 | 0 | 0.0 | 0.9 | 0.00 | 0.00 | 0.00 | 90 | 1016.5 |
| 20260507053030 | 42 | 0 | 0.0 | 1.7 | 0.00 | 0.00 | 0.00 | 90 | 1016.4 |
| 20260507052512 | 42 | 0 | 0.0 | 1.7 | 0.00 | 0.00 | 0.00 | 90 | 1016.4 |
| 20260507052011 | 42 | 360 | 0.0 | 2.6 | 0.00 | 0.00 | 0.00 | 90 | 1016.3 |
| 20260507051530 | 42 | 0 | 0.0 | 2.6 | 0.00 | 0.00 | 0.00 | 90 | 1016.4 |
| 20260507051017 | 42 | 360 | 0.0 | 2.6 | 0.00 | 0.00 | 0.00 | 90 | 1016.3 |
| 20260507050511 | 43 | 0 | 0.0 | 1.7 | 0.00 | 0.00 | 0.00 | 90 | 1016.4 |
| 20260507050029 | 42 | 360 | 0.0 | 1.7 | 0.00 | 0.00 | 0.00 | 90 | 1016.3 |
| 20260507045511 | 42 | 360 | 0.9 | 1.7 | 0.00 | 0.00 | 0.00 | 89 | 1016.3 |
| 20260507045010 | 42 | 360 | 0.0 | 0.0 | 0.00 | 0.00 | 0.00 | 89 | 1016.2 |
| 20260507044530 | 42 | 0 | 0.0 | 0.0 | 0.00 | 0.00 | 0.00 | 89 | 1016.3 |
| 20260507044011 | 42 | 0 | 0.0 | 0.0 | 0.00 | 0.00 | 0.00 | 89 | 1016.3 |
| 20260507043511 | 42 | 0 | 0.0 | 0.0 | 0.00 | 0.00 | 0.00 | 89 | 1016.3 |
| 20260507043032 | 42 | 0 | 0.0 | 0.0 | 0.00 | 0.00 | 0.00 | 89 | 1016.3 |
| 20260507042512 | 43 | 0 | 0.0 | 0.0 | 0.00 | 0.00 | 0.00 | 89 | 1016.1 |
| 20260507042011 | 43 | 0 | 0.0 | 0.0 | 0.00 | 0.00 | 0.00 | 89 | 1016.2 |
| 20260507041531 | 43 | 0 | 0.0 | 0.0 | 0.00 | 0.00 | 0.00 | 89 | 1016.3 |
| 20260507041013 | 43 | 0 | 0.0 | 0.0 | 0.00 | 0.00 | 0.00 | 89 | 1016.2 |
| 20260507040512 | 43 | 0 | 0.0 | 0.0 | 0.00 | 0.00 | 0.00 | 89 | 1016.1 |
| 20260507040029 | 43 | 0 | 0.0 | 0.0 | 0.00 | 0.00 | 0.00 | 89 | 1016.1 |
| 20260507035514 | 43 | 0 | 0.0 | 0.0 | 0.00 | 0.00 | 0.00 | 89 | 1016.1 |
| 20260507035012 | 43 | 0 | 0.0 | 0.0 | 0.00 | 0.00 | 0.00 | 89 | 1015.9 |
| 20260507034533 | 43 | 0 | 0.0 | 0.0 | 0.00 | 0.00 | 0.00 | 89 | 1016.2 |
| 20260507034012 | 44 | 0 | 0.0 | 0.0 | 0.00 | 0.00 | 0.00 | 89 | 1016.1 |
| 20260507033514 | 44 | 0 | 0.0 | 0.0 | 0.00 | 0.00 | 0.00 | 89 | 1016.1 |
| 20260507033032 | 44 | 0 | 0.0 | 0.0 | 0.00 | 0.00 | 0.00 | 89 | 1016.1 |
| 20260507032512 | 44 | 0 | 0.0 | 0.0 | 0.00 | 0.00 | 0.00 | 89 | 1016.0 |
| 20260507032015 | 44 | 0 | 0.0 | 0.0 | 0.00 | 0.00 | 0.00 | 89 | 1016.0 |
| 20260507031531 | 44 | 0 | 0.0 | 0.9 | 0.00 | 0.00 | 0.00 | 89 | 1016.1 |
| 20260507031015 | 44 | 0 | 0.0 | 0.9 | 0.00 | 0.00 | 0.00 | 88 | 1016.0 |
| 20260507030513 | 44 | 0 | 0.0 | 0.9 | 0.00 | 0.00 | 0.00 | 88 | 1015.9 |
| 20260507030030 | 44 | 0 | 0.0 | 0.0 | 0.00 | 0.00 | 0.00 | 88 | 1016.0 |
| 20260507025513 | 44 | 0 | 0.0 | 0.0 | 0.00 | 0.00 | 0.00 | 88 | 1016.0 |
| 20260507025014 | 44 | 0 | 0.0 | 0.0 | 0.00 | 0.00 | 0.00 | 88 | 1015.9 |
| 20260507024533 | 44 | 0 | 0.0 | 0.0 | 0.00 | 0.00 | 0.00 | 88 | 1016.0 |
| 20260507024016 | 44 | 0 | 0.0 | 0.0 | 0.00 | 0.00 | 0.00 | 88 | 1016.0 |
| 20260507023514 | 44 | 0 | 0.0 | 0.0 | 0.00 | 0.00 | 0.00 | 88 | 1016.0 |
| 20260507023030 | 44 | 0 | 0.0 | 0.0 | 0.00 | 0.00 | 0.00 | 88 | 1016.0 |
| 20260507022512 | 44 | 0 | 0.0 | 0.0 | 0.00 | 0.00 | 0.00 | 88 | 1016.1 |
| 20260507022013 | 44 | 0 | 0.0 | 0.0 | 0.00 | 0.00 | 0.00 | 88 | 1016.0 |
| 20260507021534 | 44 | 0 | 0.0 | 0.0 | 0.00 | 0.00 | 0.00 | 88 | 1016.0 |
| 20260507021014 | 44 | 0 | 0.0 | 0.0 | 0.00 | 0.00 | 0.00 | 87 | 1016.0 |
| 20260507020516 | 44 | 0 | 0.0 | 0.0 | 0.00 | 0.00 | 0.00 | 87 | 1016.0 |
| 20260507020031 | 44 | 0 | 0.0 | 0.0 | 0.00 | 0.00 | 0.00 | 87 | 1015.9 |
| 20260507015515 | 44 | 0 | 0.0 | 0.0 | 0.00 | 0.00 | 0.00 | 87 | 1015.9 |
| 20260507015011 | 44 | 0 | 0.0 | 0.0 | 0.00 | 0.00 | 0.00 | 86 | 1015.9 |
| 20260507014543 | 44 | 0 | 0.0 | 0.0 | 0.00 | 0.00 | 0.00 | 86 | 1015.9 |
| 20260507014013 | 44 | 0 | 0.0 | 0.0 | 0.00 | 0.00 | 0.00 | 86 | 1015.9 |
| 20260507013516 | 44 | 0 | 0.0 | 0.0 | 0.00 | 0.00 | 0.00 | 86 | 1015.8 |
| 20260507013031 | 44 | 0 | 0.0 | 0.0 | 0.00 | 0.00 | 0.00 | 86 | 1015.8 |
| 20260507012513 | 44 | 0 | 0.0 | 0.0 | 0.00 | 0.00 | 0.00 | 85 | 1015.7 |
| 20260507012017 | 45 | 0 | 0.0 | 0.0 | 0.00 | 0.00 | 0.00 | 85 | 1015.8 |
| 20260507011533 | 45 | 0 | 0.0 | 0.9 | 0.00 | 0.00 | 0.00 | 85 | 1015.8 |
| 20260507011013 | 45 | 0 | 0.0 | 0.9 | 0.00 | 0.00 | 0.00 | 85 | 1015.6 |
| 20260507010513 | 45 | 360 | 0.0 | 0.9 | 0.00 | 0.00 | 0.00 | 85 | 1015.7 |
| 20260507010035 | 45 | 0 | 0.0 | 0.9 | 0.00 | 0.00 | 0.00 | 84 | 1015.7 |
| 20260507005514 | 46 | 0 | 0.0 | 1.7 | 0.00 | 0.00 | 0.00 | 84 | 1015.8 |
| 20260507005017 | 46 | 0 | 0.0 | 1.7 | 0.00 | 0.00 | 0.00 | 84 | 1015.7 |
| 20260507004532 | 46 | 360 | 0.0 | 1.7 | 0.00 | 0.00 | 0.00 | 84 | 1015.8 |
| 20260507004018 | 47 | 0 | 0.0 | 1.7 | 0.00 | 0.00 | 0.00 | 84 | 1015.7 |
| 20260507003514 | 47 | 360 | 0.0 | 4.3 | 0.00 | 0.00 | 0.00 | 83 | 1015.7 |
| 20260507003033 | 47 | 0 | 0.0 | 4.3 | 0.00 | 0.00 | 0.00 | 84 | 1015.6 |
| 20260507002516 | 47 | 360 | 0.9 | 7.0 | 0.00 | 0.00 | 0.00 | 84 | 1015.7 |
| 20260507002015 | 47 | 360 | 1.7 | 7.0 | 0.00 | 0.00 | 0.00 | 84 | 1015.6 |
| 20260507001532 | 47 | 360 | 1.7 | 5.2 | 0.00 | 0.00 | 0.00 | 84 | 1015.7 |
| 20260507001017 | 48 | 360 | 1.7 | 5.2 | 0.00 | 0.00 | 0.00 | 84 | 1015.6 |
| 20260507000514 | 48 | 360 | 2.6 | 5.2 | 0.00 | 0.00 | 0.00 | 84 | 1015.8 |
| 20260507000036 | 48 | 360 | 0.9 | 4.3 | 0.00 | 0.00 | 0.00 | 85 | 1015.7 |
| 20260506235513 | 48 | 360 | 1.7 | 7.0 | 0.00 | 0.00 | 0.00 | 85 | 1015.7 |